Regional Weather Roundup
Issued by NWS Green Bay, WI

Home | Current Version | Previous Version | Graphics & Text | Print | Product List | Glossary Off
Versions: 1 2 3 4 5 6 7 8 9 10 11 12 13 14 15 16 17 18 19 20 21 22 23 24 25 26 27 28 29 30 31 32 33 34 35 36 37 38 39 40 41 42 43 44 45 46 47 48 49 50

792
ASUS43 KGRB 240700
RWRGRB

NORTH-CENTRAL AND NORTHEAST WISCONSIN REGIONAL WEATHER ROUNDUP
NATIONAL WEATHER SERVICE GREEN BAY WI
200 AM CDT SUN JUL 24 2016

WIZ005-009-010>012-018-019-240800-
NORTH CENTRAL WISCONSIN

CITY           SKY/WX    TMP DP  RH WIND       PRES   REMARKS
IRONWOOD       PTCLDY    70  66  88 S8        29.80S
MANITOWISH WTR CLOUDY    68  68 100 SE5       29.85F
ARBOR VITAE    NOT AVBL
EAGLE RIVER    NOT AVBL
LAND O LAKES   NOT AVBL
RHINELANDER    CLOUDY    70  68  93 S3        29.88F
PHILLIPS       CLOUDY    68  67  98 S5        29.84F
ANTIGO         NOT AVBL
TOMAHAWK       CLOUDY    67  66  96 CALM      29.86F
MERRILL        CLOUDY    69  69 100 CALM      29.86F
$$

WIZ013-073-240800-
NORTHEAST WISCONSIN

CITY           SKY/WX    TMP DP  RH WIND       PRES   REMARKS
IRON MOUNTAIN  RAIN      69  66  90 CALM      29.86F FOG
MARINETTE      CLOUDY    73  72  96 S9        29.85F
$$

WIZ017-030-035>037-045-240800-
CENTRAL WISCONSIN

CITY           SKY/WX    TMP DP  RH WIND       PRES   REMARKS
MEDFORD        NOT AVBL
WAUSAU         CLOUDY    70  68  93 SE5       29.84F
MOSINEE        CLOUDY    68  68 100 SE5       29.87R
MARSHFIELD     CLOUDY    71  68  90 SW3       29.84F
WISC RAPIDS    CLOUDY    71  68  90 S3        29.86F
STEVENS POINT  NOT AVBL
WAUPACA        NOT AVBL
SHAWANO        NOT AVBL
CLINTONVILLE   LGT RAIN  70  70 100 S9        29.86F
WAUTOMA        LGT RAIN  71  70  96 SE9       29.85F FOG
$$

WIZ038-039-048-051-240800-
FOX VALLEY

CITY           SKY/WX    TMP DP  RH WIND       PRES   REMARKS
NWS GREEN BAY  CLOUDY    72  72 100 S8        29.86F
APPLETON       TSTM      72  70  94 SE7       29.86F
OSHKOSH        LGT RAIN  72  69  90 S8        29.85F
FOND DU LAC    CLOUDY    73  70  90 S16       29.85F
$$

WIZ022-050-052-240800-
EAST CENTRAL WISCONSIN

CITY           SKY/WX    TMP DP  RH WIND       PRES   REMARKS
EPHRAIM        CLOUDY    71  70  96 S3        29.88S
WASHINGTON ISL NOT AVBL
STURGEON BAY   CLOUDY    72  69  90 S12       29.87F
MANITOWOC      NOT AVBL
SHEBOYGAN      CLOUDY    72  68  87 S14       29.88F
$$

LMZ563-521-522-541>543-240800-
LAKESHORE

STATION/POSITION TIME  TEMP    WIND        PRES    VSBY  WAVE
                       AIR SEA DIR/SP/G                  HT/PER
                 (UTC) (F)     (DEG/KT/KT) (MB)    (MI)  (FT/S)
SHEBOYGAN LKSHOR 0600   69     200/ 18/ 21 1012.3F
KEWAUNEE LKSHORE 0600   62     180/ 12/ 14 1011.6F
NORTHPORT PIER   0600   70     120/  3/  4 1011.9F
N MID LAKE BUOY  0550   72 69  230/  8/ 12 1012.0R         0
S GREEN BAY BUOY 0600   75 75  190/  8/ 10   N/A
CHAMBERS ISLAND  0600   71     120/  3/  4 1011.5F
MENOMINEE LKSHOR 0600   74     150/  7/  8 1010.6F
$$




USA.gov is the U.S. government's official web portal to all federal, state and local government web resources and services.